Minneapolis, MN

10:56 AM CDT on August 19, 2017 (GMT -0500)
Minneapolis-Saint Paul International

Weather History for KMSP - November, 2012

Change the Weather History Date:

Thursday, November 1, 2012

  Actual Average Record
Temperature  
Mean Temperature 39 °F 42 °F  
Max Temperature 47 °F 50 °F 77 °F (1933)
Min Temperature 31 °F 34 °F 10 °F (1951)
Degree Days  
Heating Degree Days 26 23  
Month to date heating degree days 26 23  
Since 1 July heating degree days 686 703  
Cooling Degree Days 0 0  
Month to date cooling degree days 0 0  
Year to date cooling degree days 1131 753  
Moisture  
Dew Point 26 °F    
Average Humidity 57    
Maximum Humidity 73    
Minimum Humidity 40    
Precipitation  
Precipitation 0.00 in 0.06 in 1.85 in (1991)
Month to date precipitation 0.00 0.06  
Year to date precipitation 27.32 27.74  
Snow  
Snow 0.00 in 0.10 in 18.50 in (1991)
Month to date snowfall 0.0 0.1  
Since 1 July snowfall T 0.7  
Since 1 September snowfall T 0.7  
Snow Depth 0.00 in    
Sea Level Pressure  
Sea Level Pressure 30.00 in    
Wind  
Wind Speed 10 mph (NNW)    
Max Wind Speed 18 mph    
Max Gust Speed 24 mph    
Visibility 10 miles    
Events      
T = Trace of Precipitation, MM = Missing Value Source: NWS Daily Summary

Daily Weather History Graph

Daily Weather History Graph

Search for Another Location

Airport or City:

Trip Planner

Search our weather history database for the weather conditions in past years. The results will help you decide how hot, cold, wet, or windy it might be!

Date:

Astronomy

Nov. 01, 2012 Rise Set
Actual Time 7:51 AM CDT 6:00 PM CDT
Civil Twilight 7:21 AM CDT 6:31 PM CDT
Nautical Twilight 6:46 AM CDT 7:05 PM CDT
Astronomical Twilight 6:12 AM CDT 7:39 PM CDT
Moon 7:52 PM CDT (11/1) 10:30 AM CDT (11/1)
Length of Visible Light 11h 09m
Length of Day
10h 08m
Waning Gibbous, 93% of the Moon is Illuminated
Nov 1
Waning Gibbous
Nov 6
Last Quarter
Nov 13
New
Nov 20
First Quarter
Nov 28
Full

Hourly Weather History & Observations

Time (CDT) Temp. Windchill Dew Point Humidity Pressure Visibility Wind Dir Wind Speed Gust Speed Precip Events Conditions
12:53 AM 45.0 °F - 25.0 °F 46% 29.94 in 10.0 mi Calm Calm - N/A   Mostly Cloudy
1:53 AM 41.0 °F - 26.1 °F 55% 29.94 in 10.0 mi Calm Calm - N/A   Scattered Clouds
2:53 AM 39.9 °F - 27.0 °F 60% 29.94 in 10.0 mi Calm Calm - N/A   Mostly Cloudy
3:53 AM 39.0 °F - 28.0 °F 65% 29.93 in 10.0 mi Calm Calm - N/A   Mostly Cloudy
4:53 AM 41.0 °F 35.8 °F 30.0 °F 65% 29.94 in 10.0 mi NW 8.1 mph - N/A   Overcast
5:53 AM 42.1 °F 36.1 °F 28.9 °F 60% 29.96 in 9.0 mi NW 10.4 mph - N/A   Overcast
6:53 AM 42.1 °F 35.2 °F 30.0 °F 62% 29.97 in 10.0 mi NNW 12.7 mph - N/A   Overcast
7:53 AM 39.9 °F 33.9 °F 30.9 °F 70% 29.99 in 10.0 mi NW 9.2 mph - N/A   Mostly Cloudy
8:53 AM 41.0 °F 34.3 °F 33.1 °F 73% 30.01 in 10.0 mi NW 11.5 mph 21.9 mph N/A   Scattered Clouds
9:53 AM 42.8 °F 36.6 °F 30.2 °F 61% 29.99 in 10.0 mi NNW 11.5 mph 20.7 mph N/A   Overcast
10:53 AM 44.1 °F 36.5 °F 30.0 °F 58% 30.01 in 10.0 mi North 17.3 mph - N/A   Overcast
11:53 AM 43.0 °F 36.0 °F 28.0 °F 56% 30.01 in 10.0 mi NNW 13.8 mph 21.9 mph N/A   Mostly Cloudy
12:53 PM 44.1 °F 37.1 °F 27.0 °F 51% 30.01 in 10.0 mi NNW 15.0 mph 20.7 mph N/A   Mostly Cloudy
1:53 PM 45.0 °F 40.1 °F 25.0 °F 46% 29.99 in 10.0 mi NNW 9.2 mph 18.4 mph N/A   Partly Cloudy
2:53 PM 46.0 °F 39.6 °F 25.0 °F 44% 29.99 in 10.0 mi North 15.0 mph 24.2 mph N/A   Scattered Clouds
3:53 PM 46.0 °F 40.2 °F 24.1 °F 42% 29.99 in 10.0 mi North 12.7 mph - N/A   Scattered Clouds
4:53 PM 44.1 °F 38.6 °F 21.9 °F 42% 30.00 in 10.0 mi NNW 10.4 mph - N/A   Scattered Clouds
5:53 PM 39.9 °F 32.1 °F 21.9 °F 49% 30.01 in 10.0 mi North 13.8 mph 18.4 mph N/A   Scattered Clouds
6:53 PM 37.9 °F 30.0 °F 21.9 °F 53% 30.04 in 10.0 mi North 12.7 mph - N/A   Scattered Clouds
7:53 PM 37.0 °F 29.8 °F 21.9 °F 54% 30.05 in 10.0 mi North 10.4 mph 19.6 mph N/A   Partly Cloudy
8:53 PM 35.1 °F 29.3 °F 21.9 °F 59% 30.05 in 10.0 mi North 6.9 mph - N/A   Partly Cloudy
9:53 PM 33.1 °F 26.9 °F 21.9 °F 64% 30.06 in 10.0 mi North 6.9 mph - N/A   Clear
10:53 PM 33.1 °F 26.9 °F 21.9 °F 64% 30.08 in 10.0 mi North 6.9 mph - N/A   Clear
11:53 PM 30.9 °F 23.5 °F 21.9 °F 69% 30.07 in 10.0 mi North 8.1 mph - N/A   Partly Cloudy